Date,TemperatureHighF,TemperatureAvgF,TemperatureLowF,DewpointHighF,DewpointAvgF,DewpointLowF,HumidityHigh,HumidityAvg,HumidityLow,PressureMaxIn,PressureMinIn,WindSpeedMaxMPH,WindSpeedAvgMPH,GustSpeedMaxMPH,PrecipitationSumIn
2012-1-1,56.5,49.8,41.4,28.8,22.1,18.1,47,34,27,30.53,30.43,14,3,14,0.00
2012-1-2,48.6,43.1,33.1,15.2,10.5,5.2,40,27,19,30.68,30.50,11,2,11,0.00
2012-1-3,54.7,49.6,44.8,24.7,21.9,14.1,45,34,23,30.39,30.07,14,6,14,0.00
2012-1-4,66.2,54.1,35.6,37.6,29.4,23.2,62,39,30,30.27,30.18,13,2,13,0.00
2012-1-5,71.6,62.6,44.1,41.8,32.7,29.1,64,33,28,30.14,29.94,10,3,10,0.00
2012-1-6,71.5,62.8,50.2,44.1,38.7,32.1,54,41,35,29.92,29.73,13,4,13,0.00
2012-1-7,57.1,52.4,47.5,30.1,27.3,25.2,42,38,33,30.05,29.98,17,7,17,0.00
2012-1-8,58.5,50.1,41.8,36.6,30.1,27.9,61,47,37,30.17,30.07,12,6,12,0.00
2012-1-9,57.1,48.7,32.2,37.6,29.0,24.8,75,48,36,30.21,30.06,14,4,14,0.00
2012-1-10,53.6,47.6,35.6,33.3,30.8,24.7,64,52,45,29.98,29.72,13,3,13,0.00
2012-1-11,66.1,50.8,30.6,42.3,33.4,25.6,83,53,35,29.96,29.59,21,6,21,0.00
2012-1-12,40.5,34.6,27.9,22.2,15.3,8.7,51,45,42,30.08,30.01,16,5,16,0.01
2012-1-13,49.5,36.4,24.5,19.3,13.4,6.8,51,40,24,30.17,30.02,8,2,8,0.00
2012-1-14,56.0,47.5,34.2,26.2,23.4,20.5,57,39,31,30.21,30.05,7,1,7,0.00
2012-1-15,63.4,58.8,55.1,36.1,31.7,24.9,48,37,25,30.01,29.88,17,8,17,0.00
2012-1-16,71.8,65.6,56.2,55.5,52.4,48.5,79,63,51,29.80,29.63,15,6,15,0.00
2012-1-17,41.8,41.0,39.4,19.9,18.4,17.6,42,40,39,30.26,30.22,17,6,17,0.00
2012-1-18,46.4,39.6,23.6,23.2,19.7,13.2,66,46,33,30.25,29.91,10,3,10,0.00
2012-1-19,58.0,49.8,37.4,35.3,30.3,24.3,59,47,41,29.91,29.81,14,5,14,0.00
2012-1-20,43.4,38.0,28.4,34.2,29.2,19.6,77,70,60,30.00,29.65,19,5,19,0.00
2012-1-21,41.4,38.6,35.5,31.2,22.3,18.7,73,52,47,30.10,29.74,11,3,11,0.00
2012-1-22,68.8,60.0,46.8,51.5,36.4,29.0,65,44,23,29.74,29.33,23,10,23,0.00
2012-1-23,60.7,52.3,36.7,36.5,29.5,22.7,70,43,29,30.01,29.91,12,3,12,0.00
2012-1-24,63.9,57.8,42.5,34.7,27.2,24.0,57,32,23,30.09,29.96,17,6,17,0.00
2012-1-25,50.8,47.7,44.1,42.9,40.9,38.8,83,77,72,30.05,29.83,15,6,15,0.01
2012-1-26,60.5,52.6,42.7,43.4,32.1,21.6,82,49,26,29.90,29.80,20,5,20,0.00
2012-1-27,62.6,54.4,43.0,38.6,33.8,27.1,69,47,34,30.19,29.74,17,6,17,0.00
2012-1-28,54.4,46.9,37.6,27.3,20.7,18.3,54,36,28,30.38,30.19,12,2,12,0.00
2012-1-29,62.3,55.9,47.2,31.2,29.0,26.8,48,36,29,30.24,30.13,11,3,11,0.00
2012-1-30,67.0,62.4,56.5,47.3,42.4,36.5,68,48,41,30.05,29.88,17,7,17,0.00
2012-1-31,70.9,63.7,53.1,54.9,50.0,40.6,80,62,49,29.99,29.83,16,5,16,0.00
2012-2-1,65.9,59.8,51.1,40.0,35.2,29.1,57,40,31,30.10,30.01,12,4,12,0.00
2012-2-2,67.9,59.0,35.6,48.8,42.0,25.6,68,54,36,30.14,29.96,15,5,15,0.00
2012-2-3,58.9,55.4,51.1,54.2,47.4,41.1,88,75,55,29.97,29.80,21,6,21,0.95
2012-2-4,51.3,46.0,40.7,43.5,36.6,30.7,80,70,66,30.25,30.09,16,6,16,0.00
2012-2-5,50.8,45.5,37.6,34.6,29.6,27.1,69,54,44,30.28,30.24,15,3,15,0.00
2012-2-6,66.4,50.5,31.0,42.5,30.9,23.9,76,49,35,30.27,30.11,6,1,6,0.00
2012-2-7,54.0,47.5,39.4,38.4,35.7,32.4,79,64,48,30.35,30.17,11,4,12,0.00
2012-2-8,44.1,41.7,39.2,34.8,33.2,31.2,79,72,65,30.42,30.29,7,2,9,0.00
2012-2-9,50.0,45.3,39.1,37.2,33.9,30.2,77,65,54,30.25,30.05,10,2,10,0.06
2012-2-10,41.0,36.7,26.3,34.9,23.8,9.3,79,60,44,30.34,30.04,18,6,18,0.00
2012-2-11,32.2,29.0,24.1,12.0,8.7,6.9,52,42,37,30.66,30.54,19,5,19,0.01
2012-2-12,40.3,36.3,23.8,15.4,10.5,6.6,52,35,28,30.58,30.10,8,3,8,0.00
2012-2-13,38.5,37.0,35.5,34.3,32.1,15.8,86,83,42,30.10,29.73,16,5,16,0.11
2012-2-14,52.9,46.3,32.2,40.0,36.9,29.0,89,71,57,29.93,29.80,10,3,10,0.00
2012-2-15,52.6,49.3,43.9,48.7,45.8,40.0,90,88,83,29.95,29.74,13,4,13,0.07
2012-2-16,61.2,52.8,46.6,42.8,35.7,32.1,61,52,43,30.25,30.11,15,4,15,0.00
2012-2-17,59.6,50.4,38.7,46.5,39.6,30.8,79,67,55,30.12,29.98,8,2,8,0.00
2012-2-18,47.2,43.6,41.0,37.2,34.7,31.1,75,71,67,30.01,29.97,16,7,16,0.01
2012-2-19,59.0,52.2,44.8,36.1,33.3,31.4,65,49,39,29.98,29.91,10,2,10,0.00
2012-2-20,55.1,51.9,45.9,46.1,42.2,34.6,80,70,63,29.91,29.64,22,8,22,0.03
2012-2-21,75.1,60.6,48.8,41.9,31.2,26.1,47,34,26,30.01,29.78,11,3,11,0.00
2012-2-22,74.3,66.2,57.2,46.1,38.5,33.4,52,37,28,29.63,29.40,12,3,12,0.00
2012-2-23,85.3,63.8,47.2,49.0,36.4,24.8,42,37,26,29.85,29.22,20,6,20,0.00
2012-2-24,72.7,56.4,39.8,34.9,25.0,20.0,49,30,23,30.20,30.09,16,4,16,0.00
2012-2-25,67.9,51.0,32.0,37.2,24.6,20.7,63,38,22,30.27,29.96,10,4,12,0.00
2012-2-26,67.0,62.3,57.4,40.0,37.8,34.3,51,41,32,30.10,29.90,18,4,18,0.00
2012-2-27,66.1,59.7,46.8,34.4,31.1,25.1,43,34,29,30.31,30.16,18,6,18,0.00
2012-2-28,67.0,62.2,54.9,61.0,53.4,43.9,82,73,60,30.01,29.58,22,8,22,0.01
2012-2-29,83.2,63.1,46.1,45.8,32.5,26.1,57,33,24,29.91,29.79,15,4,15,0.00
2012-3-1,77.4,68.1,46.8,46.6,34.5,26.6,54,30,21,29.72,29.41,18,5,18,0.00
2012-3-2,64.3,56.7,45.2,41.6,34.2,28.5,52,43,37,29.89,29.60,16,6,16,0.00
2012-3-3,47.2,43.6,40.3,22.7,22.1,21.5,47,42,38,29.97,29.95,0,0,0,0.00
2012-3-4,71.8,55.3,34.4,39.3,29.4,21.5,60,40,25,30.09,29.90,15,3,15,0.00
2012-3-5,72.0,64.7,55.3,37.4,31.6,20.9,40,29,24,30.27,30.02,16,6,16,0.00
2012-3-6,72.2,67.7,62.6,50.9,47.4,35.6,58,49,36,29.95,29.80,24,11,24,0.00
2012-3-7,70.0,66.9,63.7,57.7,56.1,53.8,78,68,64,29.87,29.76,21,8,21,0.00
2012-3-8,64.4,44.4,38.3,57.2,37.6,30.1,83,77,65,30.42,29.84,26,8,26,0.35
2012-3-9,63.0,60.1,54.2,34.9,30.4,27.1,43,33,28,30.47,30.32,17,6,17,0.00
2012-3-10,58.5,57.7,55.3,38.4,33.7,31.9,53,40,37,30.10,30.09,16,6,16,0.00
2012-3-11,54.7,52.9,47.5,50.4,48.5,42.1,89,85,78,30.04,29.78,11,4,11,1.12
2012-3-12,77.8,72.5,63.5,57.3,53.0,48.0,71,51,41,29.91,29.80,13,4,13,0.00
2012-3-13,83.7,75.7,57.6,61.1,59.0,53.1,87,58,42,29.96,29.86,14,6,14,0.00
2012-3-14,75.8,71.2,64.6,63.2,61.4,58.6,87,72,64,29.99,29.91,14,5,14,0.00
2012-3-15,82.8,77.8,68.2,66.7,64.1,60.5,82,63,57,29.99,29.89,15,6,15,0.00
2012-3-16,76.9,75.6,74.9,64.2,63.3,62.7,66,66,65,29.88,29.88,11,7,11,0.00
2012-3-17,77.6,73.8,70.2,63.8,61.3,59.1,73,65,59,29.89,29.81,16,5,16,0.00
2012-3-18,76.7,74.3,72.0,63.7,61.1,59.5,69,64,61,29.83,29.75,22,8,22,0.00
2012-3-19,68.6,59.4,57.2,63.5,55.6,53.7,91,87,79,29.71,29.60,18,5,18,2.48
2012-3-20,60.7,57.1,54.7,56.4,53.7,51.2,91,88,85,29.73,29.64,14,2,14,1.52
2012-3-21,58.7,55.5,49.3,53.4,50.1,44.8,87,82,74,29.79,29.65,14,3,14,0.24
2012-3-22,60.5,59.5,57.2,48.5,47.4,45.9,68,64,62,29.76,29.73,12,5,12,0.00
2012-3-24,73.4,67.4,61.2,49.4,48.8,48.2,64,52,42,29.94,29.89,3,0,3,0.00
2012-3-25,81.2,78.2,69.7,55.1,53.0,50.4,51,42,37,30.02,29.91,8,3,8,0.00
2012-3-26,88.4,78.7,53.8,60.5,56.9,47.0,79,48,38,30.00,29.86,14,5,14,0.00
2012-3-27,85.5,79.4,69.5,62.8,57.8,54.3,60,48,39,29.93,29.83,13,4,13,0.00
2012-3-28,87.8,80.8,63.7,64.4,61.7,56.3,77,53,45,29.92,29.78,13,5,13,0.00
2012-3-29,88.6,78.2,67.7,66.2,60.4,56.1,69,55,47,29.83,29.68,14,5,14,0.00
2012-3-30,87.5,80.8,67.3,67.8,61.9,57.2,72,53,44,29.78,29.64,10,2,10,0.00
2012-3-31,86.8,81.2,72.4,68.4,64.1,61.7,72,57,48,29.74,29.67,11,3,11,0.00
2012-4-1,89.3,83.1,73.6,68.0,65.0,62.5,70,55,46,29.58,29.48,16,6,16,0.03
2012-4-2,86.6,78.6,68.0,67.5,62.4,56.3,82,58,50,29.67,29.51,12,6,12,0.00
2012-4-3,80.3,72.0,61.6,62.7,58.6,55.4,80,63,52,29.84,29.63,18,3,18,0.00
2012-4-4,75.2,69.8,62.1,60.7,56.0,47.4,83,63,44,29.74,29.63,10,4,10,0.00
2012-4-5,69.8,64.6,58.1,56.8,54.5,50.2,79,70,62,29.90,29.73,11,4,11,0.00
2012-4-6,67.7,63.9,55.6,54.4,52.9,49.1,79,68,61,30.03,29.91,10,3,10,0.00
2012-4-7,68.4,61.4,57.6,56.7,54.5,51.1,86,78,56,30.22,30.00,21,4,21,0.23
2012-4-8,70.2,66.4,63.9,58.0,54.2,45.6,80,66,52,30.25,30.10,10,2,10,0.00
2012-4-9,77.4,72.2,60.5,64.4,59.3,56.5,87,65,52,30.13,29.95,10,3,10,0.00
2012-4-10,74.5,69.0,61.2,56.8,51.4,43.1,82,55,46,30.07,29.98,12,5,12,0.00
2012-4-11,66.1,61.2,52.4,49.0,45.8,42.5,79,58,44,30.19,30.03,14,5,14,0.19
2012-4-12,69.3,65.8,62.3,52.4,50.3,46.0,63,57,53,29.98,29.82,17,7,17,0.00
2012-4-13,75.1,71.2,65.3,66.1,63.8,59.2,86,78,71,29.81,29.65,19,5,19,0.05
2012-4-14,77.8,75.6,74.2,67.2,65.7,64.2,75,71,69,29.75,29.53,21,9,21,0.00
2012-4-15,74.3,68.6,60.1,61.0,49.3,42.9,70,51,41,29.78,29.54,15,4,15,0.00
2012-4-16,88.4,69.0,51.5,56.9,45.7,41.0,70,44,30,30.14,29.78,9,2,9,0.00
2012-4-17,87.1,70.7,48.4,57.4,49.1,42.1,80,48,35,30.20,30.07,11,3,11,0.00
2012-4-18,83.9,72.6,54.9,56.4,53.6,46.7,76,52,38,30.07,29.86,13,5,13,0.00
2012-4-19,82.1,75.8,58.3,58.7,55.1,47.9,69,49,38,29.83,29.63,18,6,18,0.00
2012-4-20,65.5,59.2,53.3,51.7,44.9,39.8,76,60,46,29.96,29.76,18,6,18,0.00
2012-4-21,72.2,67.9,59.0,49.2,47.3,44.1,64,48,41,29.98,29.84,9,2,9,0.00
2012-4-22,69.7,65.7,56.0,43.6,40.2,37.1,57,40,32,30.12,30.03,20,6,20,0.00
2012-4-23,79.4,68.6,49.3,52.4,45.2,41.0,73,44,36,30.17,29.94,10,2,10,0.00
2012-4-24,86.2,78.2,52.0,62.1,55.8,43.0,72,47,34,29.87,29.60,13,4,13,0.00
2012-4-25,89.5,82.5,67.9,67.9,64.0,55.2,69,54,43,29.66,29.56,10,3,10,0.00
2012-4-26,88.0,80.5,67.0,72.4,60.7,53.2,84,52,33,29.81,29.74,15,5,15,0.00
2012-4-27,83.2,79.6,71.8,66.4,64.4,63.0,79,60,53,29.66,29.52,20,8,20,0.00
2012-4-28,81.4,76.6,72.2,67.2,64.7,63.1,75,67,59,29.81,29.74,14,4,14,0.00
2012-4-29,78.8,73.3,66.6,68.5,65.0,61.9,86,76,67,29.87,29.73,12,4,12,0.02
2012-4-30,81.9,77.2,70.9,69.9,67.1,60.8,84,71,65,29.94,29.72,13,5,13,0.00
2012-5-1,84.1,79.5,65.0,69.8,66.6,59.3,82,65,58,29.77,29.64,18,6,18,0.00
2012-5-2,87.1,82.3,73.4,70.0,68.1,65.1,75,62,54,29.74,29.69,16,8,16,0.00
2012-5-3,90.7,85.4,71.1,73.4,71.0,64.5,80,62,52,29.78,29.71,17,6,17,0.00
2012-5-4,97.6,86.0,79.7,75.2,72.0,69.4,71,63,46,29.78,29.66,18,5,18,0.00
2012-5-5,88.7,84.1,76.0,68.8,66.5,62.8,77,57,43,29.75,29.67,19,6,19,0.00
2012-5-6,88.6,83.7,76.3,74.1,71.7,68.7,79,68,57,29.75,29.69,16,5,16,0.00
2012-5-7,78.1,73.2,67.7,65.4,62.0,54.3,80,68,63,29.90,29.80,19,7,19,0.00
2012-5-8,85.3,74.2,61.2,60.3,50.5,44.4,69,44,34,30.02,29.91,12,3,12,0.00
2012-5-9,90.9,75.9,58.3,61.1,51.7,48.2,75,44,34,30.00,29.87,13,3,13,0.04
2012-5-10,85.5,79.3,71.1,57.2,54.0,52.3,52,42,37,29.89,29.79,9,4,9,0.00
2012-5-11,71.1,68.6,65.9,59.1,56.9,54.1,77,67,56,29.99,29.93,8,3,8,0.01
2012-5-12,79.0,73.2,68.8,62.0,58.7,57.3,69,61,54,30.09,30.04,13,3,13,0.00
2012-5-13,80.3,76.2,68.8,62.5,58.6,55.0,62,55,49,30.12,30.01,12,4,12,0.00
2012-5-14,92.5,79.7,68.0,65.3,53.8,48.2,58,41,34,30.08,29.95,12,4,12,0.00
2012-5-15,97.6,80.0,57.4,63.3,53.1,48.7,76,41,31,30.01,29.90,9,2,9,0.00
2012-5-16,102.8,84.6,59.2,64.7,57.9,50.2,72,42,27,29.98,29.86,7,2,7,0.00
2012-5-17,105.7,85.9,63.0,68.9,58.5,52.7,74,41,27,29.93,29.77,13,3,13,0.00
2012-5-18,102.6,85.8,77.4,66.1,60.5,57.6,53,43,30,29.82,29.69,22,7,22,0.00
2012-5-19,86.8,83.5,78.3,58.2,54.9,51.3,50,38,30,29.86,29.74,20,8,20,0.00
2012-5-20,83.9,79.1,72.2,67.9,63.6,61.4,83,60,50,30.04,29.99,12,3,12,0.00
2012-5-21,91.6,78.9,66.6,64.7,53.7,46.7,71,42,36,30.14,29.99,14,5,14,0.00
2012-5-22,87.1,78.2,57.1,57.3,50.5,45.0,65,39,29,29.98,29.71,12,4,12,0.00
2012-5-23,90.5,85.9,79.2,64.7,61.3,55.1,53,44,37,29.65,29.43,20,8,20,0.01
2012-5-24,87.1,83.9,79.0,70.6,69.1,66.4,69,61,57,29.58,29.47,14,6,15,0.00
2012-5-25,89.3,85.2,79.4,70.8,69.6,67.9,71,60,53,29.79,29.70,19,8,19,0.00
2012-5-26,90.7,86.1,79.0,70.7,68.6,65.6,65,56,51,29.88,29.80,16,6,16,0.02
2012-5-27,91.1,87.3,78.7,65.9,61.9,58.8,65,43,35,29.83,29.69,17,7,17,0.00
2012-5-28,95.0,90.7,78.5,72.3,70.1,59.8,67,51,46,29.74,29.62,21,4,21,0.04
2012-5-29,99.9,84.8,70.9,73.0,65.7,58.7,78,55,38,29.82,29.68,20,3,20,0.18
2012-5-30,89.8,83.0,68.0,63.5,60.5,56.3,77,48,37,29.82,29.61,15,4,15,0.00
2012-5-31,79.6,71.0,63.0,64.8,56.7,47.6,88,62,41,29.91,29.55,22,7,22,0.71
2012-6-1,84.6,67.8,60.5,56.2,52.2,49.5,76,58,37,29.96,29.83,9,2,9,0.08
2012-6-2,85.3,80.7,74.3,64.2,61.1,57.8,64,52,41,29.85,29.72,7,2,7,0.01
2012-6-3,91.4,86.9,73.6,73.4,70.9,61.0,72,60,52,29.77,29.67,13,3,13,0.00
2012-6-4,89.5,79.4,67.5,72.5,68.0,62.2,89,70,50,29.86,29.68,24,3,24,1.97
2012-6-5,96.1,86.0,74.2,73.9,67.8,61.1,78,55,47,29.80,29.68,14,5,14,0.00
2012-6-6,87.7,83.2,75.1,63.2,61.0,58.2,61,48,38,29.85,29.78,13,4,13,0.00
2012-6-7,83.3,79.4,72.4,59.9,57.5,54.4,61,47,41,29.99,29.90,10,4,10,0.00
2012-6-8,93.6,82.4,74.2,59.4,56.0,52.4,54,41,32,29.98,29.79,9,3,9,0.00
2012-6-9,90.9,87.4,81.7,68.6,66.4,64.2,56,50,44,29.78,29.61,16,6,16,0.01
2012-6-10,91.3,88.8,84.8,71.6,70.5,69.0,63,55,51,29.65,29.60,19,8,19,0.00
2012-6-11,88.6,83.8,76.7,75.4,71.7,68.5,77,67,61,29.88,29.72,15,4,15,0.00
2012-6-12,88.0,82.6,71.6,65.2,56.7,52.1,68,42,31,30.06,29.91,17,5,17,0.00
2012-6-13,86.8,77.6,69.5,69.8,62.2,54.3,71,59,52,29.96,29.82,12,4,13,0.00
2012-6-14,91.3,81.3,69.3,72.2,66.9,60.9,77,63,49,29.86,29.67,14,5,14,0.00
2012-6-15,88.0,81.3,67.1,71.4,68.5,62.3,87,66,53,29.90,29.74,16,4,16,0.02
2012-6-16,90.7,86.6,79.2,74.1,71.3,67.7,68,61,49,29.97,29.85,14,4,14,0.00
2012-6-17,93.2,89.5,83.5,74.0,71.5,69.5,63,56,50,29.86,29.68,16,6,16,0.00
2012-6-18,91.8,88.9,83.0,72.5,67.5,61.5,63,50,38,29.70,29.64,16,7,16,0.00
2012-6-19,90.2,85.2,76.0,70.9,69.3,68.1,78,60,49,29.79,29.71,17,8,17,0.00
2012-6-20,88.9,85.3,80.3,71.7,69.1,66.0,70,59,50,29.86,29.80,16,6,16,0.00
2012-6-21,86.8,79.0,69.5,73.9,70.0,65.1,88,74,63,30.00,29.89,13,4,13,0.19
2012-6-22,90.9,86.2,79.9,70.7,64.2,59.0,59,48,38,29.93,29.79,12,4,12,0.00
2012-6-23,96.5,92.5,83.5,73.0,68.3,64.2,53,46,40,29.81,29.73,13,4,13,0.00
2012-6-24,97.4,94.5,86.8,70.6,68.3,64.4,53,43,36,29.87,29.77,8,2,8,0.00
2012-6-25,100.8,97.2,86.9,74.5,71.1,65.9,59,44,35,29.84,29.68,6,2,6,0.00
2012-6-26,96.8,93.6,90.5,71.3,70.8,69.9,52,48,43,29.68,29.65,5,2,5,0.00
2012-6-27,97.2,92.6,86.8,66.3,64.8,63.9,48,40,35,29.80,29.76,9,3,9,0.00
2012-6-28,101.9,98.7,90.9,66.8,64.0,60.8,40,32,29,29.85,29.80,11,3,11,0.00
2012-6-29,99.5,96.7,90.7,67.5,64.3,62.3,41,35,32,29.76,29.72,12,4,12,0.00
2012-6-30,98.5,94.2,85.1,70.5,65.6,60.6,45,39,34,29.79,29.70,12,4,12,0.00
2012-7-1,97.4,94.2,89.1,68.8,66.8,65.4,47,41,38,29.83,29.78,12,5,12,0.00
2012-7-2,94.1,86.3,83.5,72.1,70.0,67.8,64,59,44,29.85,29.82,19,4,19,0.00
2012-7-3,92.7,89.0,85.9,58.2,57.0,55.8,39,34,30,29.79,29.75,5,1,5,0.00
2012-7-4,99.0,96.9,87.5,68.4,64.2,60.9,42,35,30,29.83,29.78,16,5,16,0.04
2012-7-5,99.9,96.7,88.4,76.1,67.2,61.8,53,39,33,29.90,29.79,12,3,12,0.00
2012-7-6,101.3,96.4,88.6,65.7,64.4,62.6,46,36,30,29.87,29.79,8,2,8,0.00
2012-7-7,96.5,90.5,79.7,74.2,69.9,63.4,74,52,35,29.96,29.83,14,2,14,0.00
2012-7-8,95.9,92.5,83.7,70.8,67.9,65.3,58,45,38,29.91,29.79,10,3,10,0.00
2012-7-9,95.4,91.6,77.9,75.8,69.0,65.2,75,48,39,29.88,29.77,16,6,16,0.00
2012-7-10,94.5,91.8,85.1,69.2,63.4,58.6,46,39,35,29.85,29.80,15,6,15,0.00
2012-7-11,96.3,90.6,86.2,74.5,57.5,54.1,53,33,27,29.89,29.78,9,3,9,0.00
2012-7-12,93.8,90.6,87.5,61.8,60.7,59.7,42,37,33,29.82,29.78,5,2,5,0.00
2012-7-13,92.7,81.6,78.3,68.4,66.1,63.2,69,60,42,29.88,29.82,25,5,25,0.02
2012-7-15,92.7,87.7,79.7,69.6,67.5,66.0,71,52,43,29.92,29.82,14,5,14,0.00
2012-7-16,94.3,90.7,80.5,74.9,69.4,64.4,75,51,38,29.89,29.74,13,5,13,0.00
2012-7-17,95.9,93.8,90.7,69.8,66.5,63.4,43,41,38,29.75,29.72,9,4,9,0.00
2012-7-18,103.9,99.5,94.5,73.4,66.7,63.0,42,35,30,29.88,29.73,11,3,11,0.00
2012-7-19,106.6,97.5,82.1,73.9,69.6,63.5,68,43,27,29.92,29.76,17,3,17,0.12
2012-7-20,93.6,90.8,88.7,60.8,59.7,58.6,39,36,32,29.84,29.81,8,4,8,0.00
2012-7-21,101.3,99.5,89.8,68.2,60.2,56.1,38,28,24,29.86,29.79,17,6,17,0.00
2012-7-22,100.8,95.8,86.0,67.6,62.1,55.6,48,34,24,29.90,29.83,12,4,12,0.00
2012-7-23,100.8,95.3,85.9,70.2,66.3,63.5,50,39,31,29.91,29.84,13,4,13,0.00
2012-7-24,100.3,96.7,90.0,74.3,67.9,63.4,58,40,33,29.92,29.73,13,5,13,0.00
2012-7-25,102.6,99.3,91.8,72.5,68.8,64.9,46,38,32,29.75,29.61,15,5,15,0.00
2012-7-26,87.3,86.8,86.6,69.5,69.2,69.0,56,56,56,29.73,29.72,8,3,8,0.00
2012-7-27,101.5,98.4,90.4,71.9,63.6,56.4,46,33,25,29.87,29.80,8,2,8,0.00
2012-7-28,89.5,88.8,88.2,60.1,58.8,57.7,39,37,35,29.86,29.86,3,1,3,0.00
2012-7-29,96.8,95.9,95.0,55.8,55.3,54.8,27,26,25,29.76,29.74,4,2,4,0.00
2012-7-30,103.9,97.4,92.3,59.6,57.9,56.5,32,28,23,29.75,29.69,9,2,9,0.00
2012-7-31,102.2,97.2,91.8,58.1,56.6,55.1,31,26,24,29.75,29.68,10,4,10,0.00
2012-8-1,108.2,104.4,99.4,69.1,66.0,61.3,36,30,24,29.74,29.58,13,4,13,0.00
2012-8-2,109.8,103.5,97.6,68.9,65.2,61.9,32,29,26,29.67,29.54,14,4,14,0.00
2012-8-3,103.7,100.3,95.2,69.2,66.0,63.6,38,33,30,29.68,29.55,14,5,14,0.00
2012-8-4,108.0,100.8,82.8,73.8,66.9,61.6,73,36,26,29.81,29.68,18,3,18,0.23
2012-8-5,91.8,86.3,81.0,58.2,56.8,55.8,44,37,30,29.97,29.94,10,3,10,0.00
2012-8-6,98.8,93.0,75.2,67.3,52.4,45.1,60,27,17,29.99,29.81,9,3,9,0.00
2012-8-7,102.2,96.7,89.8,59.9,57.7,55.2,35,28,23,29.78,29.73,10,4,10,0.00
2012-8-8,102.6,92.7,79.0,70.1,66.4,62.4,67,45,29,29.83,29.70,16,5,16,0.00
2012-8-9,100.3,94.1,83.9,74.3,63.9,57.9,49,38,29,29.79,29.71,17,6,17,0.00
2012-8-10,92.5,87.8,72.7,65.0,53.1,43.8,67,32,21,29.90,29.80,18,6,18,0.00
2012-8-11,90.9,86.9,78.5,62.3,54.6,48.8,51,34,25,29.88,29.77,10,3,10,0.00
2012-8-12,97.9,93.4,77.9,69.2,64.8,51.8,49,40,34,29.80,29.67,13,4,13,0.00
2012-8-13,96.1,84.7,72.2,64.3,59.7,57.1,60,43,31,29.93,29.83,15,5,15,0.00
2012-8-14,84.6,78.1,70.4,62.6,59.0,54.8,69,53,40,29.91,29.75,17,4,17,0.02
2012-8-15,98.1,90.7,68.6,71.3,67.7,60.3,75,48,38,29.81,29.67,13,4,13,0.00
2012-8-16,101.7,91.8,75.2,72.6,67.3,53.0,62,46,35,29.90,29.72,20,5,20,0.00
2012-8-17,88.0,83.7,74.9,58.2,54.2,50.6,52,37,29,29.95,29.80,13,5,13,0.00
2012-8-18,78.8,75.0,70.0,69.1,64.4,51.0,84,71,41,29.85,29.73,9,2,9,0.14
2012-8-19,90.0,83.6,73.1,69.5,63.8,55.1,66,52,42,29.85,29.75,19,2,19,0.26
2012-8-20,72.9,67.5,64.3,58.5,54.6,51.5,64,63,61,29.90,29.90,5,2,5,0.00
2012-8-21,86.6,81.6,78.1,55.4,53.2,50.0,45,38,29,29.91,29.87,2,0,2,0.00
2012-8-22,110.9,92.8,72.7,70.0,57.7,49.7,66,32,24,29.98,29.85,14,3,14,0.00
2012-8-23,99.4,88.2,69.1,64.1,56.1,50.6,64,35,25,29.95,29.80,16,4,16,0.00
2012-8-24,92.7,86.1,73.8,67.3,62.2,55.0,54,45,35,29.84,29.70,13,5,13,0.00
2012-8-25,88.6,83.9,76.0,72.4,71.2,69.0,79,66,59,29.77,29.70,14,6,14,0.00
2012-8-26,92.9,90.4,82.1,73.8,71.0,68.1,63,53,50,29.86,29.80,9,3,9,0.00
2012-8-27,97.0,88.1,75.6,76.5,68.5,62.9,82,53,43,29.97,29.86,12,5,14,0.00
2012-8-28,92.5,85.1,69.5,61.9,56.7,53.4,77,39,27,29.96,29.83,8,2,13,0.00
2012-8-29,94.3,89.7,71.3,69.1,54.3,44.8,74,32,21,29.88,29.73,13,4,13,0.00
2012-8-30,95.8,91.1,82.6,65.7,63.7,62.3,54,41,35,29.72,29.65,17,6,17,0.00
2012-8-31,86.0,81.0,75.6,72.2,66.8,64.7,85,62,54,29.78,29.69,14,3,14,0.01
2012-9-1,96.5,92.1,78.8,71.6,68.5,65.0,63,47,38,29.83,29.76,14,6,14,0.00
2012-9-3,103.7,95.5,88.0,67.7,65.5,63.7,47,38,30,29.71,29.66,8,2,8,0.00
2012-9-4,101.0,94.2,88.0,64.9,63.0,61.1,46,36,30,29.67,29.62,10,2,10,0.00
2012-9-5,96.7,93.3,90.0,67.6,67.0,66.3,47,43,38,29.68,29.64,6,2,6,0.00
2012-9-6,97.6,87.8,80.3,70.2,67.6,64.7,67,52,39,29.78,29.67,7,2,7,0.00
2012-9-7,91.6,84.2,79.4,70.9,65.1,59.3,57,53,50,29.74,29.69,28,7,28,0.00
2012-9-8,81.7,77.7,68.0,52.2,48.4,44.7,56,37,29,30.01,29.91,16,4,16,0.00
2012-9-9,86.6,81.3,72.2,54.0,49.7,46.3,46,34,28,29.98,29.92,14,5,14,0.00
2012-9-10,86.9,80.9,59.6,59.6,54.2,49.2,72,41,28,30.01,29.85,9,3,9,0.00
2012-9-11,91.8,84.3,68.0,63.6,55.4,50.3,68,38,25,29.96,29.82,14,4,14,0.00
2012-9-12,91.3,84.3,69.7,63.8,59.2,54.1,66,43,34,29.94,29.83,17,5,17,0.00
2012-9-13,87.8,76.8,64.1,66.1,60.3,54.5,73,57,44,30.09,29.90,22,6,22,0.00
2012-9-14,62.8,60.8,58.7,59.9,57.2,54.8,90,87,83,30.13,30.07,13,5,13,0.00
2012-9-15,76.1,72.3,68.6,66.9,65.3,64.2,88,79,71,29.99,29.94,5,1,5,0.00
2012-9-16,77.2,72.0,66.4,66.2,63.5,61.1,90,75,61,29.94,29.83,7,2,7,0.00
2012-9-17,95.6,77.5,62.6,73.7,63.0,58.1,86,62,48,29.81,29.69,13,2,13,0.00
2012-9-18,90.7,72.2,57.2,60.0,49.3,44.6,75,46,30,30.01,29.90,12,3,12,0.00
2012-9-19,86.8,77.4,58.0,54.6,50.1,47.4,72,40,30,29.96,29.81,14,4,14,0.00
2012-9-20,94.3,80.1,63.4,65.8,58.7,49.9,64,49,29,29.88,29.76,10,3,10,0.00
2012-9-21,99.2,84.4,66.2,69.0,58.9,50.9,78,44,29,29.82,29.68,12,3,12,0.00
2012-9-22,103.7,78.1,60.5,64.1,49.1,40.1,69,38,26,30.05,29.86,16,5,16,0.00
2012-9-23,78.5,74.8,67.7,52.3,48.3,45.3,46,39,32,30.06,29.96,12,5,12,0.00
2012-9-24,90.2,78.7,61.7,64.0,58.4,49.1,64,51,38,29.95,29.70,15,5,15,0.00
2012-9-25,101.5,85.6,76.0,68.4,60.7,54.5,60,44,33,29.75,29.47,14,4,14,0.00
2012-9-26,81.7,74.9,68.0,68.0,64.4,56.1,84,70,53,29.78,29.55,12,3,12,0.00
2012-9-27,84.8,76.7,65.5,68.8,63.6,60.8,86,65,55,29.92,29.60,8,2,8,0.00
2012-9-28,86.2,78.1,66.4,70.4,65.6,60.8,84,66,53,30.06,29.65,11,3,11,0.00
2012-9-29,76.0,71.8,66.2,67.2,64.8,60.5,87,79,69,30.06,29.96,12,4,12,0.00
2012-9-30,76.3,70.4,63.9,59.2,54.7,46.4,76,59,37,29.96,29.86,10,3,10,0.00
2012-10-1,81.5,72.8,62.3,54.5,51.9,47.8,69,50,33,29.87,29.78,18,5,18,0.00
2012-10-2,87.5,73.8,58.0,55.2,46.3,38.2,65,39,25,29.97,29.86,12,2,12,0.00
2012-10-3,88.7,74.5,52.6,58.4,51.0,44.2,76,46,30,29.99,29.90,12,2,12,0.00
2012-10-4,90.7,72.4,59.4,63.6,54.5,45.1,77,54,38,30.16,30.08,14,5,14,0.00
2012-10-5,55.3,52.9,47.7,46.1,41.5,35.8,76,66,56,30.26,30.14,21,8,21,0.00
2012-10-6,50.8,48.4,45.0,39.1,34.8,31.7,67,59,53,30.31,30.24,14,4,14,0.00
2012-10-7,61.0,54.6,43.6,34.4,31.3,27.7,67,42,31,30.32,30.19,8,2,8,0.00
2012-10-8,69.1,60.7,53.6,46.6,38.2,35.6,55,44,36,30.22,30.01,11,3,11,0.00
2012-10-9,69.5,64.0,51.3,54.2,51.3,43.1,74,64,47,30.05,29.86,16,3,16,0.00
2012-10-10,77.0,65.4,49.1,49.7,38.4,34.5,67,38,29,30.27,30.11,13,4,13,0.00
2012-10-11,78.1,71.3,62.1,65.8,60.2,48.5,78,68,61,30.12,29.99,14,4,14,0.00
2012-10-12,73.8,69.2,65.9,68.9,63.6,61.0,91,82,70,30.16,30.02,17,4,17,0.70
2012-10-13,76.9,69.5,65.5,70.1,64.8,62.0,92,85,75,30.02,29.67,17,5,17,2.89
2012-10-14,78.8,71.1,58.7,63.3,49.4,44.3,88,49,32,30.05,29.67,14,2,14,0.00
2012-10-15,92.0,81.4,70.0,63.0,52.1,47.0,54,37,29,30.04,29.85,10,2,10,0.00
2012-10-16,87.5,76.3,61.9,55.4,51.6,48.0,64,43,31,29.82,29.56,15,6,15,0.00
2012-10-17,79.0,71.0,63.5,66.5,55.9,39.1,82,61,40,29.74,29.42,15,4,15,0.01
2012-10-18,87.5,70.4,62.6,43.3,27.3,20.7,35,21,15,29.88,29.77,25,9,25,0.00
2012-10-19,71.8,64.7,51.3,36.6,33.2,27.2,57,32,25,29.89,29.81,15,4,15,0.00
2012-10-20,83.5,75.8,50.6,56.3,53.0,36.2,61,46,35,29.83,29.68,12,4,12,0.00
2012-10-21,84.1,80.4,69.8,70.2,67.7,55.8,72,65,61,29.78,29.69,17,7,17,0.00
2012-10-22,79.7,75.1,70.7,68.4,65.4,61.8,81,72,59,29.88,29.79,15,4,15,0.01
2012-10-23,81.4,75.7,69.7,68.9,66.9,64.3,83,74,64,29.86,29.76,17,6,17,0.00
2012-10-24,84.4,76.9,68.0,67.7,63.9,61.1,83,65,51,29.88,29.72,16,7,16,0.00
2012-10-25,58.7,52.3,48.1,49.3,41.3,37.7,75,66,62,30.18,29.91,19,7,19,0.02
2012-10-26,52.2,46.8,41.2,32.4,30.1,28.8,62,52,44,30.34,30.29,18,6,18,0.02
2012-10-27,55.1,49.9,39.6,37.4,31.0,27.8,64,49,39,30.35,30.18,13,3,13,0.00
2012-10-28,60.1,53.4,42.8,36.4,31.7,28.2,60,44,35,30.27,30.19,12,2,12,0.00
2012-10-29,65.2,57.3,37.1,39.0,33.8,29.3,74,43,30,30.28,30.08,11,3,11,0.00
2012-10-30,76.9,65.3,42.5,43.8,40.4,32.3,67,42,29,30.01,29.83,8,2,8,0.00
2012-10-31,70.2,62.9,48.2,41.6,38.4,34.2,58,41,32,30.05,29.95,10,2,10,0.00
2012-11-1,79.2,69.3,52.6,47.4,44.9,41.4,67,43,30,29.99,29.88,8,1,8,0.00
2012-11-2,87.3,74.5,52.4,57.3,50.9,43.7,73,46,28,29.89,29.75,13,3,13,0.00
2012-11-3,69.7,61.3,52.9,50.6,38.4,36.2,54,43,36,30.14,29.83,12,4,12,0.00
2012-11-4,70.7,61.8,52.2,44.2,39.9,36.6,61,46,34,30.14,30.01,7,1,7,0.00
2012-11-5,67.7,58.0,48.2,45.8,40.2,36.8,65,52,44,30.10,30.01,17,4,17,0.00
2012-11-6,70.0,60.5,39.8,47.1,39.6,32.1,77,47,36,30.11,29.99,11,2,11,0.00
2012-11-7,68.4,59.8,40.7,39.0,34.3,29.8,66,39,29,30.17,30.05,12,2,12,0.00
2012-11-8,73.6,66.2,50.8,49.1,43.7,35.1,56,45,36,30.04,29.84,20,8,20,0.00
2012-11-9,77.6,74.0,69.8,60.9,58.9,56.3,63,59,55,29.89,29.78,17,7,17,0.00
2012-11-10,76.5,72.9,69.5,58.3,56.5,55.2,64,56,51,29.83,29.71,21,10,21,0.00
2012-11-11,69.8,43.7,37.6,57.1,35.1,28.0,82,72,63,30.25,29.70,16,4,16,0.45
2012-11-12,58.0,50.1,38.9,35.7,30.7,27.5,74,48,34,30.45,30.38,11,2,11,0.00
2012-11-13,61.6,53.5,43.6,36.1,28.0,22.0,65,39,25,30.46,30.29,14,2,14,0.00
2012-11-14,61.4,54.3,43.9,35.3,30.4,27.5,63,41,29,30.38,30.23,10,3,10,0.00
2012-11-15,64.1,55.9,44.6,35.5,33.4,31.6,61,44,32,30.33,30.22,8,2,8,0.00
2012-11-16,65.7,57.0,43.2,42.5,36.4,31.9,71,47,33,30.40,30.30,8,1,8,0.00
2012-11-17,62.8,54.1,42.1,32.5,29.5,25.7,66,41,27,30.32,30.23,11,2,11,0.00
2012-11-18,65.7,60.1,55.3,39.2,36.6,35.5,48,42,34,30.24,30.12,15,5,15,0.00
2012-11-19,72.7,64.4,52.9,52.1,47.7,41.7,68,55,46,30.14,30.04,12,2,12,0.00
2012-11-20,74.9,64.6,50.4,53.8,44.7,39.1,66,49,39,30.18,30.11,7,2,7,0.00
2012-11-21,76.3,67.8,58.5,50.2,40.7,34.7,65,39,26,30.23,30.01,11,4,11,0.00
2012-11-22,75.6,68.7,59.6,53.7,48.6,40.9,60,49,45,30.18,29.86,22,6,22,0.00
2012-11-23,59.6,46.2,36.7,41.8,22.3,19.5,53,39,30,30.44,30.18,20,3,20,0.00
2012-11-24,55.8,50.9,35.8,25.8,23.9,20.3,54,35,28,30.41,29.98,11,4,11,0.00
2012-11-25,66.6,58.5,49.7,37.6,34.8,33.3,56,42,32,29.87,29.79,8,2,8,0.00
2012-11-26,49.7,43.3,36.2,34.6,29.9,25.0,71,60,46,30.36,29.86,26,10,26,0.00
2012-11-27,51.1,44.4,36.0,30.5,26.0,23.4,65,49,38,30.45,30.26,8,1,8,0.00
2012-11-28,59.4,52.5,34.9,36.7,33.8,23.0,62,49,41,30.36,30.15,13,4,13,0.00
2012-11-29,68.9,58.9,44.6,42.0,36.7,32.9,64,45,30,30.16,29.97,15,6,15,0.00
2012-11-30,61.6,59.3,55.1,54.2,51.2,46.8,82,75,64,30.07,29.96,11,3,11,0.00
2012-12-1,76.5,69.5,58.7,60.6,57.6,53.3,83,67,55,29.97,29.75,19,4,19,0.00
2012-12-2,74.9,70.1,61.2,59.2,57.5,52.2,77,65,47,29.92,29.86,12,4,12,0.00
2012-12-3,75.1,70.0,58.7,60.1,57.0,47.3,78,64,55,29.93,29.75,19,6,19,0.00
2012-12-4,65.0,56.2,43.6,37.8,31.9,27.1,57,41,26,30.28,30.12,16,4,16,0.00
2012-12-5,63.4,57.4,43.0,34.3,30.6,28.2,59,37,28,30.28,30.00,11,3,11,0.00
2012-12-6,62.5,57.8,50.4,49.4,46.8,45.0,82,67,59,29.89,29.75,15,4,15,0.00
2012-12-7,58.1,55.2,51.7,52.0,49.9,46.0,86,83,79,29.86,29.75,8,1,8,0.00
2012-12-8,55.8,52.4,49.3,48.8,46.0,43.8,86,79,74,29.86,29.76,8,3,8,0.00
2012-12-9,52.6,43.7,32.0,45.6,29.0,14.3,82,56,47,30.09,29.76,14,6,14,0.01
2012-12-10,41.9,35.3,25.4,21.2,16.3,11.5,57,46,38,30.14,30.02,12,2,12,0.00
2012-12-11,53.6,44.8,29.5,25.7,18.3,13.2,57,35,25,30.17,30.05,8,2,8,0.00
2012-12-12,53.1,45.9,30.4,22.4,15.8,10.9,49,31,22,30.25,30.11,13,5,13,0.00
2012-12-13,61.7,53.4,38.0,26.2,23.3,17.4,43,31,24,30.18,30.05,16,6,16,0.00
2012-12-14,53.3,49.4,45.7,40.1,33.5,27.8,78,56,39,30.05,29.72,20,7,20,0.08
2012-12-15,68.0,57.7,50.0,43.8,38.3,35.6,58,49,41,29.72,29.65,8,2,8,0.00
2012-12-16,71.5,59.3,45.7,44.0,37.4,33.5,70,46,30,29.73,29.57,12,3,13,0.00
2012-12-17,58.7,50.3,41.0,39.8,35.0,31.3,71,56,46,29.82,29.71,9,2,9,0.00
2012-12-18,63.5,55.3,42.8,41.5,34.1,29.3,64,46,36,29.78,29.71,7,1,7,0.00
2012-12-19,65.9,60.0,41.4,58.2,51.2,32.1,83,73,48,29.66,29.40,20,6,20,0.00
2012-12-20,48.4,41.6,31.3,24.6,17.4,13.7,48,38,33,30.30,30.12,18,5,18,0.00
2012-12-21,56.2,49.0,31.1,25.8,19.9,14.1,49,32,23,30.34,30.17,9,3,9,0.00
2012-12-22,63.9,56.0,39.1,26.3,20.2,13.9,44,26,17,30.18,29.91,12,3,12,0.00
2012-12-23,63.7,50.0,34.6,42.2,31.9,22.0,61,50,41,29.92,29.77,14,3,14,0.00
2012-12-24,40.0,34.9,29.3,23.4,21.3,19.7,67,58,48,29.99,29.91,15,7,15,0.00
2012-12-25,30.6,27.0,22.7,20.6,17.5,10.5,73,67,59,30.12,29.92,30,12,30,0.00
2012-12-26,38.0,32.3,22.0,18.3,15.9,10.2,60,51,45,30.24,30.08,10,2,11,0.00
2012-12-27,36.9,35.5,28.6,26.8,25.3,15.3,70,66,57,30.08,29.88,14,3,14,0.00
2012-12-28,38.2,33.7,26.3,30.2,23.1,12.6,73,65,55,30.13,29.93,10,2,10,0.01
2012-12-29,44.3,34.6,23.4,21.7,16.0,11.2,60,47,38,30.35,30.12,9,2,9,0.00
2012-12-30,45.4,38.0,26.1,24.3,20.0,12.9,58,48,38,30.35,30.14,13,4,13,0.00
2012-12-31,41.0,39.4,37.4,36.0,34.6,23.4,86,83,57,30.14,29.93,6,1,6,0.27
2013-1-1,41.0,31.2,26.3,35.6,24.8,18.5,81,77,72,30.25,30.02,8,3,8,0.00